Back to catalog

KUIPER-00179

AliveCommunicationsLEO
NORAD 67136·PAYLOAD·🇺🇸 United States

Launched Dec 15, 2025 from Cape Canaveral Space Force Station

Loading…

Next Passes (next 24 hours)

TLE

FreshSource: CelesTrak SupGP

Epoch: Sep 14, 2026, 14:23 UTC

1 67136C 25301D   26257.59938657  .00006475  00000+0  84790-3 0  2577
2 67136  51.8978 310.2201 0000468  84.4995  52.5629 14.79909181    18

Track KUIPER-00179 in real time with AllMySat

Download on the App Store